GFSGL_925_temp_135.txt.gz
Temp
10 10 11 11 11 11 11 11 11 10 9 9 9 9 10 10 11 12 12 11 12 12 12 12 12 11 11 10 10 10 10 10 9 7 7 7 7 7 7 7 7 6 6
10 10 10 10 10 10 10 10 10 9 9 9 9 9 9 9 9 10 10 10 11 11 11 11 11 10 9 9 9 9 9 9 9 7 6 6 6 6 6 5 5 5 4
10 10 9 9 9 9 9 9 9 9 8 8 8 9 9 9 9 10 10 10 10 10 10 10 9 9 9 8 9 9 8 8 8 7 5 5 5 5 4 4 4 4 3
10 10 9 9 9 8 8 8 8 8 8 8 9 9 8 9 9 9 9 9 9 9 9 9 8 8 9 8 8 8 7 7 6 5 4 3 3 3 3 2 3 2 2
9 9 8 8 9 8 9 8 8 8 8 8 8 8 8 8 8 8 8 8 8 8 8 8 8 8 7 7 7 6 6 5 4 4 3 3 3 3 3 2 1 2 2
8 7 8 8 9 9 9 9 8 7 7 7 7 7 7 6 7 7 8 7 7 7 7 6 6 6 6 5 5 5 5 4 3 3 3 3 3 2 1 1 1 3 3
8 8 8 8 8 8 8 7 7 7 7 6 6 6 5 4 6 6 6 6 6 6 5 5 5 5 5 5 4 3 3 3 3 2 2 2 2 2 1 2 2 2 2
8 8 8 8 8 7 7 7 6 6 6 6 5 5 5 3 4 5 5 5 5 4 4 4 4 4 4 3 3 3 3 3 2 2 1 1 1 1 1 1 1 0 0
8 8 8 8 7 7 7 6 6 6 5 5 4 4 3 3 2 4 4 3 3 3 3 3 3 3 3 3 3 3 2 2 2 1 1 0 0 0 -0 -0 -0 -0 0
8 8 8 7 7 6 6 6 5 5 5 4 3 3 3 2 2 2 2 2 2 1 2 2 1 1 2 2 3 2 2 1 1 1 1 0 -0 -1 -1 -1 -2 -1 -2
8 8 7 7 7 7 6 5 5 5 4 4 3 3 3 2 2 2 2 2 2 1 1 1 1 1 2 2 2 1 2 2 1 0 -1 -1 -1 -1 -1 -1 -1 -2 -2
8 8 7 7 7 6 6 5 5 5 4 3 3 3 3 2 2 2 2 2 2 2 1 1 1 1 1 1 1 1 0 1 0 -0 -0 -0 -1 -0 -0 -1 -1 -1 -1
8 7 7 7 6 6 6 5 4 4 4 3 2 2 2 2 2 2 1 1 1 2 1 1 0 0 0 1 1 1 -0 -1 -0 -0 -0 -0 -0 -0 -0 -0 -0 -1 -1
8 7 7 7 6 6 6 6 5 4 3 3 2 1 2 2 2 2 1 1 1 1 1 1 -0 -0 -0 -1 -1 -0 -0 -0 -0 -1 -1 -0 -0 -0 -0 -1 -1 -1 -1
8 7 7 7 6 6 5 5 5 5 5 4 4 3 2 1 2 1 1 1 1 1 0 -0 -0 -0 -1 -1 -1 -1 -1 -1 -1 -1 -1 -1 -1 -1 -1 -1 -1 -1 -1
7 6 6 5 5 5 5 4 4 4 4 4 3 3 3 2 2 1 1 1 0 0 -0 -1 -1 -1 -1 -1 -1 -1 -1 -2 -1 -2 -2 -2 -2 -1 -1 -1 -1 -2 -2
7 6 6 6 5 5 4 3 1 2 3 3 3 2 2 2 0 0 1 0 0 -0 -1 -1 -1 -1 -2 -2 -2 -2 -2 -2 -2 -2 -2 -2 -2 -2 -1 -1 -1 -2 -1
7 8 7 6 6 5 4 4 4 2 1 1 1 1 1 0 0 0 -0 -0 -1 -1 -1 -1 -1 -2 -2 -2 -2 -2 -2 -2 -2 -2 -2 -2 -2 -2 -2 -1 -1 -2 -2
7 6 7 7 7 6 5 4 4 3 2 1 1 0 0 -0 -0 -0 -1 -1 -1 -1 -1 -2 -2 -2 -2 -2 -2 -2 -2 -2 -2 -2 -2 -2 -2 -2 -2 -2 -2 -2 -2
7 7 8 6 5 5 5 4 3 2 2 1 0 0 0 -0 -0 -1 -1 -1 -1 -2 -2 -2 -2 -3 -3 -3 -3 -3 -3 -3 -3 -3 -3 -3 -3 -3 -2 -2 -2 -2 -2
6 5 6 5 5 5 5 4 3 3 2 1 1 1 1 0 -1 -1 -1 -1 -2 -2 -2 -2 -3 -3 -3 -3 -4 -4 -4 -4 -4 -3 -3 -3 -3 -3 -3 -2 -2 -3 -2
6 5 4 5 5 4 3 3 3 3 2 2 2 1 0 -1 -0 -1 -1 -2 -2 -2 -3 -3 -4 -3 -3 -3 -4 -4 -4 -4 -4 -4 -3 -3 -3 -3 -3 -3 -2 -2 -2
5 5 3 3 3 2 2 2 3 3 2 2 2 2 0 -1 -1 -1 -1 -2 -3 -3 -3 -3 -4 -4 -4 -4 -4 -5 -4 -4 -4 -4 -3 -3 -3 -3 -3 -3 -3 -3 -3
5 4 3 2 2 2 2 2 3 3 3 2 2 1 1 -0 -1 -1 -2 -2 -3 -3 -4 -4 -4 -4 -5 -4 -4 -4 -4 -4 -4 -4 -4 -4 -4 -3 -4 -3 -3 -3 -3
4 3 2 1 2 1 2 3 3 3 2 3 2 1 1 -0 -1 -2 -2 -3 -3 -4 -4 -4 -4 -4 -4 -5 -4 -4 -5 -5 -5 -4 -4 -4 -3 -3 -3 -3 -3 -3 -3
3 2 2 2 2 2 3 3 4 3 3 2 2 1 1 -0 -1 -2 -2 -3 -4 -4 -4 -4 -5 -5 -5 -5 -5 -5 -5 -5 -4 -4 -3 -3 -3 -3 -3 -3 -3 -3 -3

GFSGL_925_temp_141.txt.gz
Temp
11 11 11 10 10 10 10 10 10 10 10 10 10 10 10 10 11 12 12 13 12 13 12 12 12 12 12 11 11 11 11 10 10 7 7 7 7 8 7 7 7 7 7
11 10 10 10 10 10 9 9 9 9 9 8 8 8 8 8 9 10 10 11 11 12 12 12 12 11 10 10 10 10 9 9 9 7 6 7 7 7 7 6 6 6 6
10 10 9 9 10 9 9 9 9 9 9 9 9 9 9 8 8 9 10 10 10 10 10 10 10 10 9 9 8 8 8 8 9 8 6 6 6 6 6 5 6 6 6
9 10 9 9 9 9 9 9 9 8 8 8 8 8 9 9 9 9 9 9 9 9 9 10 9 9 9 8 8 8 8 8 7 7 7 6 6 6 5 6 6 5 5
10 9 9 8 8 8 8 8 8 8 8 7 8 8 9 9 9 9 9 9 9 8 8 8 8 8 8 8 7 7 7 6 6 6 6 6 6 6 6 5 5 5 6
9 8 8 8 8 8 8 7 8 8 7 8 8 7 7 7 8 8 8 8 8 7 7 7 7 6 6 6 6 6 6 6 6 6 6 6 6 6 5 3 4 5 6
9 9 9 10 10 10 10 9 9 9 9 8 8 8 6 6 6 7 7 7 7 7 6 6 6 6 6 5 5 5 5 5 5 5 6 6 5 4 3 3 3 4 5
11 11 11 11 11 10 10 10 10 9 9 8 8 7 6 5 7 7 6 6 6 6 6 6 6 6 6 6 6 6 6 5 4 4 3 3 2 2 2 2 3 3 4
13 12 11 11 11 10 10 10 10 9 9 8 8 7 6 4 5 6 6 6 6 5 5 5 6 6 5 5 5 5 6 5 3 3 3 2 2 1 1 1 3 3 4
13 12 11 11 10 10 9 9 9 9 8 8 8 7 6 4 4 5 6 6 6 5 5 3 4 4 3 3 4 5 5 4 3 3 2 2 1 1 1 1 2 2 2
13 12 11 11 10 9 9 8 8 8 8 8 7 7 6 5 3 4 5 6 6 5 5 4 3 2 2 2 3 4 3 3 3 2 2 2 2 2 2 2 1 1 1
12 11 11 10 10 9 8 8 8 7 7 7 7 6 6 5 3 3 4 4 4 5 5 4 2 2 2 2 2 2 2 3 2 2 2 2 1 2 2 1 1 1 0
11 11 10 10 9 9 8 8 8 7 7 7 7 6 6 5 4 3 3 3 3 4 4 2 1 1 2 2 2 1 0 1 1 1 1 1 1 1 1 1 1 0 0
11 11 10 10 9 9 8 8 8 7 7 7 7 7 6 5 5 4 3 2 2 3 2 1 1 1 1 0 1 1 0 0 0 0 0 0 0 0 0 1 0 1 1
12 11 10 10 9 9 9 8 8 8 7 7 7 6 6 5 5 4 4 4 4 3 2 2 1 1 1 1 0 -0 -0 -0 -0 -0 -0 -0 -0 0 0 0 0 -0 -0
12 11 11 10 9 9 8 7 7 7 7 6 6 6 5 5 5 3 3 3 2 2 2 2 2 1 1 1 0 -0 -0 -0 -0 -1 -1 -0 -0 0 0 0 0 -0 -1
12 12 11 10 9 9 8 7 5 5 5 5 5 5 4 4 4 3 2 1 1 1 1 2 2 1 1 0 -0 -0 -1 -1 -1 -1 -1 -1 -1 -0 -0 -1 -0 -0 -1
12 12 11 9 9 9 8 7 7 5 4 3 4 4 3 3 2 1 1 1 1 1 1 1 1 0 -0 -0 -1 -1 -1 -1 -1 -1 -1 -1 -1 -1 -1 -1 -1 -1 -1
12 11 10 9 9 8 8 7 7 6 5 5 3 2 2 2 1 1 1 1 2 1 1 1 0 -0 -0 -1 -1 -1 -2 -2 -1 -2 -2 -2 -2 -1 -1 -1 -1 -1 -1
11 11 10 9 9 8 7 7 7 6 6 5 3 2 1 1 1 1 1 1 2 1 1 0 -0 -1 -1 -1 -2 -2 -2 -2 -2 -2 -2 -2 -2 -2 -2 -2 -2 -2 -2
11 11 9 9 8 7 6 6 6 6 6 5 4 3 2 1 1 1 1 1 1 0 -0 -1 -1 -1 -2 -2 -2 -2 -2 -2 -2 -2 -2 -2 -2 -2 -2 -2 -2 -2 -2
10 10 8 9 8 7 6 6 6 5 5 4 4 3 2 1 1 1 2 1 0 -1 -1 -2 -2 -2 -2 -2 -3 -3 -3 -3 -3 -3 -3 -3 -3 -2 -2 -2 -2 -2 -2
10 9 8 8 7 6 6 6 5 5 5 4 3 2 1 0 0 1 1 0 -1 -1 -2 -2 -3 -3 -3 -3 -3 -3 -4 -3 -3 -3 -3 -3 -3 -3 -3 -3 -2 -2 -2
9 9 7 7 7 6 5 5 5 5 4 3 2 1 0 0 1 1 -0 -1 -1 -2 -2 -3 -3 -4 -4 -4 -4 -4 -4 -4 -4 -4 -4 -4 -4 -3 -3 -3 -3 -3 -3
9 8 7 7 6 5 5 5 5 4 3 2 1 1 1 1 0 0 -0 -1 -2 -2 -3 -3 -3 -4 -4 -4 -4 -4 -4 -4 -5 -5 -4 -4 -4 -3 -3 -3 -3 -3 -3
8 8 7 6 5 5 5 5 4 2 2 1 2 3 2 0 1 0 -1 -2 -2 -2 -3 -3 -4 -4 -4 -4 -4 -5 -5 -5 -5 -4 -4 -4 -4 -3 -3 -3 -3 -4 -4

GFSGL_925_temp_144.txt.gz
Temp
11 11 10 10 11 11 10 10 10 10 11 11 10 11 11 12 12 13 13 14 15 14 14 14 13 13 13 12 12 12 11 11 10 9 9 8 8 8 8 8 7 7 7
11 10 10 10 10 10 10 9 10 9 9 9 9 9 10 10 10 10 11 12 12 12 12 12 12 12 12 12 12 11 10 9 8 7 7 7 7 7 7 7 7 7 6
10 10 10 9 9 9 9 9 9 10 10 9 9 9 9 9 9 9 10 10 11 11 11 11 11 11 11 10 10 9 9 8 8 8 7 7 7 7 6 6 6 6 6
10 10 9 9 9 9 9 9 9 9 8 8 8 8 8 8 9 9 9 9 9 10 10 10 10 10 10 9 8 8 8 8 8 7 7 7 6 6 6 5 5 5 5
9 9 8 8 9 9 8 8 8 9 9 9 9 9 9 9 9 9 9 9 9 9 9 9 9 9 8 8 8 8 7 7 7 7 6 6 6 6 6 5 5 5 5
9 8 8 8 9 9 9 9 9 8 8 8 8 8 8 8 8 9 9 9 8 8 8 7 7 7 7 7 7 6 6 6 6 6 6 6 6 5 4 4 3 3 4
9 9 9 9 8 8 8 8 8 8 8 8 7 7 7 7 7 7 8 7 7 7 7 6 6 6 6 6 5 5 6 6 5 5 5 4 3 3 3 2 2 3 3
9 10 10 10 10 9 9 9 9 8 8 7 7 6 6 6 6 7 7 7 7 6 6 6 6 6 6 5 6 5 5 5 4 4 4 3 3 3 2 2 2 2 3
11 11 11 10 10 10 9 9 9 8 8 7 7 6 6 5 6 6 6 6 6 6 6 6 6 6 5 6 5 5 5 4 4 3 3 2 2 1 1 1 2 2 2
12 11 11 10 10 10 10 9 9 9 8 7 7 6 5 5 5 6 6 6 5 5 5 5 4 4 3 4 4 4 5 3 4 3 3 2 1 1 1 1 1 1 2
12 11 11 10 10 10 9 9 9 8 8 7 7 6 5 5 5 6 6 6 5 5 5 4 3 3 3 3 3 4 4 4 3 3 2 1 2 2 2 1 1 1 1
12 11 11 10 9 9 9 8 8 8 7 7 7 5 5 4 4 5 4 5 5 5 4 3 3 2 2 3 3 3 2 2 3 2 2 1 1 2 2 1 1 0 0
11 11 10 10 9 8 8 8 7 7 7 7 6 6 5 4 4 3 3 4 4 4 3 3 2 2 2 2 2 2 1 2 2 1 1 1 1 1 1 1 1 1 1
11 11 10 9 9 8 8 8 7 7 7 7 6 6 5 5 4 3 3 3 3 3 3 2 1 1 1 1 1 1 0 1 1 1 1 1 0 0 1 1 0 1 0
11 10 10 9 9 8 8 8 7 7 7 7 7 6 6 5 5 4 3 3 3 3 2 2 1 1 1 1 1 0 0 0 0 -0 -0 -0 0 0 0 0 0 0 0
10 10 10 9 9 9 8 8 8 8 7 7 7 7 6 6 5 4 4 3 3 3 2 2 2 2 1 1 0 0 0 -0 -0 -0 -1 -1 -1 -0 0 0 -0 -0 -1
11 10 10 9 9 9 8 7 6 6 7 7 6 6 6 5 5 4 3 3 2 2 2 2 2 2 1 0 0 -0 -0 -0 -1 -1 -1 -1 -1 -1 -1 -1 -1 -1 -1
11 11 10 10 9 9 8 7 7 6 5 5 5 5 5 4 4 3 2 2 1 1 1 1 1 1 0 0 -0 -1 -1 -1 -1 -1 -1 -1 -1 -1 -1 -1 -1 -1 -1
12 11 10 10 9 9 8 7 6 5 5 5 4 3 4 3 3 2 1 1 1 1 1 1 1 0 0 -0 -1 -1 -1 -1 -1 -2 -2 -2 -2 -2 -2 -1 -1 -1 -1
12 11 11 10 9 8 8 7 6 5 5 4 3 3 2 2 2 1 1 1 1 1 1 1 0 -0 -0 -1 -1 -1 -2 -2 -2 -2 -2 -2 -2 -2 -2 -2 -2 -2 -2
11 12 10 9 9 8 8 7 7 6 5 4 4 3 3 2 1 1 1 1 1 1 1 0 -0 -1 -1 -1 -2 -2 -2 -2 -2 -2 -2 -3 -2 -2 -2 -2 -2 -2 -2
11 11 10 9 8 7 7 7 6 6 6 5 4 3 2 1 1 1 1 2 1 1 1 -0 -1 -1 -2 -2 -2 -2 -3 -3 -3 -3 -3 -3 -3 -3 -3 -3 -3 -3 -3
11 10 9 9 8 7 6 6 6 6 6 5 4 3 2 1 1 1 2 1 1 1 -0 -1 -2 -2 -3 -3 -3 -3 -3 -3 -3 -3 -3 -3 -3 -3 -3 -3 -3 -3 -3
10 10 9 8 8 7 6 6 6 5 5 4 4 3 2 2 2 2 1 1 1 -0 -1 -2 -2 -3 -4 -4 -4 -4 -3 -4 -4 -3 -4 -4 -4 -4 -3 -3 -3 -3 -3
10 9 8 8 7 6 6 5 5 5 4 4 3 2 2 2 2 2 1 1 -0 -1 -2 -2 -3 -4 -4 -4 -4 -4 -4 -3 -4 -5 -5 -4 -4 -4 -4 -3 -3 -3 -4
9 9 8 7 7 6 5 5 5 4 4 3 3 3 3 2 2 1 1 -0 -1 -1 -2 -3 -3 -4 -4 -4 -4 -4 -4 -5 -5 -5 -4 -4 -4 -4 -4 -4 -4 -4 -4

GFSGL_925_temp_147.txt.gz
Temp
11 11 11 11 11 11 12 12 11 11 11 12 12 13 13 13 14 15 15 15 16 15 15 15 14 14 14 14 13 13 13 12 11 9 9 9 8 8 8 8 8 7 7
10 10 10 10 10 10 11 11 11 11 11 11 11 11 12 12 13 13 13 13 13 13 12 12 12 12 12 12 13 12 12 11 10 9 8 8 7 7 7 7 7 7 7
10 10 10 9 9 9 9 9 10 10 10 10 10 10 10 11 11 11 12 12 12 11 11 11 11 11 11 11 11 11 10 9 9 8 7 7 7 7 7 6 6 6 6
10 9 9 9 9 9 9 9 9 9 9 9 9 9 9 9 9 9 9 10 10 10 10 10 10 10 10 10 9 9 8 8 8 8 7 6 6 6 6 6 5 5 5
9 9 9 9 9 9 9 9 9 9 9 9 9 8 8 9 9 8 9 9 9 9 9 9 9 9 9 8 8 8 8 8 7 7 6 6 6 6 5 4 4 4 4
9 9 9 9 9 9 9 9 9 9 8 8 8 8 8 8 8 8 9 8 8 8 8 8 7 7 7 7 7 7 7 7 6 6 5 5 4 4 3 3 3 3 3
9 9 9 9 9 9 9 9 8 8 8 8 8 9 8 8 8 8 8 8 8 7 7 7 7 7 7 6 6 5 5 5 5 5 5 4 3 3 3 2 2 2 2
8 8 9 9 9 9 8 8 8 8 8 7 7 7 7 7 7 7 7 7 7 6 6 6 6 6 6 6 6 5 5 5 5 4 3 3 2 2 2 2 2 2 2
9 9 9 9 9 8 8 8 8 7 7 7 7 7 6 6 6 7 7 6 6 6 6 6 6 5 5 5 5 5 4 3 3 3 2 2 1 1 1 1 1 2 1
10 10 10 9 9 9 8 8 8 8 7 7 6 6 6 6 6 6 6 6 5 5 5 5 5 5 4 4 5 4 3 4 3 4 3 2 1 1 1 1 1 1 1
11 10 10 9 9 9 9 8 8 7 7 6 6 5 5 5 5 5 6 6 5 5 4 4 3 3 3 3 3 4 4 3 3 3 2 2 1 2 2 1 1 1 1
11 10 10 9 9 9 9 8 8 7 7 6 5 5 5 5 5 5 5 5 5 5 4 3 2 2 2 2 3 2 2 2 2 2 2 1 1 1 1 1 1 1 0
11 10 10 9 9 9 8 8 7 7 6 5 5 4 4 4 4 4 4 4 5 4 3 3 2 2 1 2 2 2 1 1 2 2 1 1 1 1 1 1 1 0 0
10 10 9 9 9 9 8 8 7 7 6 6 5 5 4 4 4 4 4 3 3 3 2 2 2 1 1 1 1 1 1 1 1 1 1 1 1 0 1 0 0 0 0
10 9 9 9 8 8 8 8 8 7 7 7 6 6 5 4 4 4 4 4 3 3 2 2 1 1 1 1 1 1 0 1 0 0 -0 -0 -0 -0 0 -0 -0 -0 -0
9 8 9 9 8 8 8 7 7 8 7 7 7 7 6 6 5 4 4 3 3 2 2 1 1 1 1 1 1 0 0 0 -0 -0 -1 -1 -1 -1 -0 -0 -1 -1 -1
9 8 8 8 8 8 7 7 6 7 7 7 7 6 6 6 5 4 3 3 2 2 2 2 1 1 1 1 0 0 -0 -0 -1 -1 -1 -1 -1 -1 -1 -1 -1 -1 -1
10 9 8 8 7 7 7 7 7 6 6 5 6 6 6 5 5 4 3 2 2 1 2 1 1 1 1 0 0 -0 -0 -1 -1 -1 -1 -1 -1 -2 -1 -2 -2 -1 -1
10 9 8 8 8 8 7 7 7 6 6 5 4 5 5 5 4 3 2 3 2 1 1 1 1 1 0 -0 -0 -1 -1 -1 -2 -2 -2 -2 -2 -2 -2 -2 -2 -2 -2
10 9 9 9 8 8 7 7 6 6 5 5 4 4 3 3 2 2 2 1 1 1 1 1 1 0 -0 -1 -1 -1 -2 -2 -2 -2 -2 -2 -2 -2 -2 -2 -2 -2 -2
10 10 10 9 8 8 7 6 7 6 5 5 5 5 4 3 2 2 3 1 2 2 1 1 1 0 -1 -1 -2 -2 -2 -2 -2 -3 -3 -3 -3 -3 -3 -3 -3 -2 -3
11 10 9 9 8 8 7 7 7 7 6 5 4 4 3 2 3 3 3 2 2 1 1 1 0 -0 -1 -2 -2 -2 -3 -3 -3 -3 -3 -3 -3 -3 -3 -3 -3 -3 -3
11 10 9 8 8 8 7 7 7 6 6 5 4 3 2 2 3 3 3 2 1 1 1 0 -0 -1 -2 -3 -3 -3 -3 -3 -3 -3 -3 -4 -4 -3 -4 -4 -3 -3 -3
11 10 9 8 8 8 7 7 6 6 6 5 5 4 3 3 3 3 3 2 1 1 0 -0 -1 -2 -3 -4 -3 -3 -3 -3 -3 -3 -4 -4 -4 -4 -4 -3 -3 -3 -3
10 10 9 9 8 7 7 6 6 5 5 5 4 4 4 4 3 3 2 2 1 1 -0 -1 -2 -3 -4 -4 -4 -4 -3 -3 -4 -4 -5 -5 -4 -4 -4 -4 -4 -4 -4
10 9 9 9 8 7 7 6 6 5 5 4 4 4 4 4 3 3 2 1 0 -0 -1 -2 -3 -3 -4 -4 -4 -4 -5 -5 -5 -5 -5 -5 -5 -4 -4 -4 -4 -4 -4

GFSGL_925_temp_150.txt.gz
Temp
11 11 11 11 11 12 12 10 10 10 10 12 13 13 13 13 14 14 14 15 15 16 15 15 14 14 14 14 14 14 14 14 12 11 11 10 9 8 7 7 7 8 7
10 11 11 11 11 11 11 10 11 11 11 12 12 12 13 13 13 13 14 14 14 15 13 12 12 12 12 12 13 12 12 12 11 9 8 7 7 7 7 7 7 7 7
10 10 10 10 10 10 10 10 10 10 11 11 11 11 11 11 11 12 13 12 12 11 11 11 11 11 11 11 11 11 11 10 9 9 7 6 6 6 6 6 6 6 6
10 9 9 9 9 9 9 9 9 9 9 10 10 10 10 10 11 11 11 11 11 10 10 10 9 9 10 10 9 9 9 9 8 8 7 6 6 6 6 6 5 5 5
9 9 9 9 9 9 9 9 9 9 9 9 9 9 9 10 10 10 10 10 10 9 9 9 9 9 9 9 9 8 8 8 7 7 6 6 6 5 5 4 4 4 4
9 9 9 9 9 9 9 9 9 8 9 9 9 9 9 9 9 9 9 9 9 9 8 8 8 8 7 8 8 7 7 7 7 6 5 5 4 4 4 3 3 3 3
9 9 9 9 9 9 8 9 8 8 8 8 8 8 8 8 8 8 8 8 8 8 8 7 7 7 7 6 6 6 5 6 6 6 5 4 3 3 3 3 2 2 2
9 8 9 9 9 8 8 8 8 8 8 8 8 8 8 7 8 8 8 8 7 7 7 7 7 6 6 6 6 5 5 5 5 4 4 3 2 2 2 2 2 2 1
8 8 8 9 8 8 8 8 8 8 7 7 7 7 7 7 7 8 8 7 7 6 6 6 6 5 5 5 5 5 4 4 3 3 2 2 1 1 1 1 1 1 0
9 9 9 9 9 9 8 8 7 7 7 7 7 7 7 6 7 7 7 7 6 5 5 5 5 5 4 4 4 4 4 3 3 3 3 2 2 1 1 1 1 0 0
9 10 10 9 9 9 8 8 7 7 7 6 6 6 6 6 6 6 6 6 6 5 5 4 4 3 3 3 3 4 4 3 2 3 3 2 2 1 1 1 1 1 0
10 10 9 9 9 8 8 7 7 7 6 5 5 5 5 5 5 5 6 6 5 5 4 3 3 3 2 2 2 3 2 2 2 2 2 2 1 1 1 1 1 0 0
10 9 9 9 9 8 8 7 6 6 6 5 5 5 5 5 5 5 5 5 5 4 3 3 2 2 1 2 2 2 1 1 2 1 2 1 1 1 1 1 0 0 0
9 9 9 8 8 8 8 7 7 6 5 5 4 4 4 4 4 4 4 4 4 3 2 2 2 1 1 1 1 1 1 1 1 1 1 1 0 0 0 -0 -0 -0 -0
9 9 8 8 8 8 8 8 7 7 8 6 6 5 4 4 4 4 4 3 3 3 2 2 2 1 1 1 1 1 0 1 0 0 0 -0 -1 -1 -1 -1 -1 -0 -1
7 7 8 7 7 8 7 7 7 8 7 7 7 7 6 6 5 4 4 4 3 3 2 2 1 1 1 1 0 0 0 0 0 -0 -1 -1 -1 -1 -1 -1 -1 -1 -1
8 7 7 7 7 7 7 7 6 6 7 7 6 6 6 6 5 4 4 3 2 2 2 2 1 1 1 1 0 0 0 -0 -1 -1 -1 -1 -1 -1 -1 -1 -1 -1 -1
9 8 7 7 7 7 7 7 7 6 6 6 6 6 6 6 5 4 3 2 2 2 2 2 1 1 1 1 0 -0 -0 -1 -1 -1 -2 -2 -2 -2 -2 -2 -2 -2 -2
9 7 7 7 7 7 7 7 7 7 6 6 6 6 6 5 4 4 3 4 3 2 2 1 1 1 1 0 -0 -1 -1 -1 -2 -2 -2 -2 -2 -2 -2 -2 -2 -2 -2
9 9 8 8 7 7 7 6 6 6 6 6 5 5 4 4 3 3 3 3 2 2 2 1 1 1 0 -0 -1 -1 -2 -2 -2 -2 -2 -3 -3 -3 -3 -3 -3 -3 -3
8 8 8 8 7 7 7 6 6 6 6 5 5 5 4 4 4 3 3 3 2 3 2 1 1 0 -0 -1 -1 -2 -2 -2 -3 -3 -3 -3 -3 -3 -3 -3 -3 -3 -3
10 9 7 8 7 7 6 6 6 6 6 5 4 4 4 4 4 4 4 3 3 2 1 1 1 -0 -1 -2 -2 -2 -2 -3 -3 -3 -3 -3 -4 -4 -4 -3 -3 -3 -3
9 8 7 8 8 7 6 7 7 6 6 6 5 4 3 3 4 4 4 3 2 2 1 0 -0 -1 -2 -2 -3 -3 -3 -3 -3 -3 -4 -4 -4 -4 -4 -4 -4 -3 -3
9 9 8 8 8 7 7 7 7 6 6 6 5 4 3 4 4 4 3 3 2 1 1 0 -1 -1 -2 -3 -3 -3 -3 -3 -3 -4 -4 -4 -5 -4 -4 -4 -4 -4 -4
9 9 8 8 8 7 7 7 6 6 6 6 5 4 4 4 4 4 3 2 2 1 0 -0 -1 -2 -3 -4 -3 -3 -4 -4 -4 -4 -5 -5 -5 -5 -4 -4 -4 -4 -4
10 9 9 9 8 8 7 7 7 6 6 5 5 5 5 5 4 3 3 2 2 1 -0 -1 -2 -2 -3 -4 -4 -4 -5 -5 -5 -5 -5 -5 -5 -4 -5 -5 -4 -4 -4